FW6381 Weather Reports


Display with metric or nautical units.
time (UTC)temp
F
wind
direction
speed
MPH
gust
MPH
rain 1hr
in
rain 24hr
in
rain mn
in
humidity
%
barometer
mb
20260503013504 41 264 6.0 13.0 0.00 0.00 0.00 74 1015.5
20260503013003 41 266 6.0 13.0 0.00 0.00 0.00 74 1015.5
20260503012503 41 265 4.0 13.0 0.00 0.00 0.00 74 1015.5
20260503012003 41 248 3.0 9.0 0.00 0.00 0.00 72 1015.5
20260503011503 41 245 4.0 12.0 0.00 0.00 0.00 72 1015.4
20260503011003 41 237 5.0 12.0 0.00 0.00 0.00 72 1015.4
20260503010503 41 238 5.0 12.0 0.00 0.00 0.00 71 1015.3
20260503010005 42 255 5.0 12.0 0.00 0.00 0.00 71 1015.3
20260503005503 42 252 5.0 10.0 0.00 0.00 0.00 71 1015.3
20260503005003 42 251 5.0 12.0 0.00 0.00 0.00 71 1015.2
20260503004503 42 259 4.0 12.0 0.00 0.00 0.00 70 1015.2
20260503004214 42 255 4.0 9.0 0.00 0.00 0.00 71 1015.3
20260503003503 42 242 4.0 6.0 0.00 0.00 0.00 70 1015.2
20260503003003 42 242 4.0 10.0 0.00 0.00 0.00 70 1015.2
20260503002503 42 249 4.0 10.0 0.00 0.00 0.00 70 1015.1
20260503002003 42 266 4.0 9.0 0.00 0.00 0.00 70 1015.1
20260503001715 42 271 4.0 9.0 0.00 0.00 0.00 70 1015.1
20260503001004 42 264 4.0 10.0 0.00 0.00 0.00 69 1015.1
20260503000713 42 257 4.0 10.0 0.00 0.00 0.00 69 1015.1
20260503000003 42 257 6.0 14.0 0.00 0.00 0.00 69 1015.0
20260502235503 42 258 7.0 14.0 0.00 0.00 0.00 68 1015.1
20260502235003 42 247 6.0 12.0 0.00 0.00 0.00 68 1015.0
20260502234503 42 252 5.0 12.0 0.00 0.00 0.00 68 1015.0
20260502234003 42 248 6.0 13.0 0.00 0.00 0.00 68 1015.1
20260502233503 42 236 6.0 15.0 0.00 0.00 0.00 67 1015.0
20260502233214 42 231 5.0 15.0 0.00 0.00 0.00 67 1015.0
20260502232503 42 243 4.0 10.0 0.00 0.00 0.00 67 1015.1
20260502232003 42 261 5.0 12.0 0.00 0.00 0.00 67 1015.0
20260502231503 42 254 5.0 12.0 0.00 0.00 0.00 66 1015.0
20260502231003 43 263 6.0 12.0 0.00 0.00 0.00 66 1015.0
20260502230503 43 269 6.0 12.0 0.00 0.00 0.00 66 1015.0
20260502230005 43 255 6.0 14.0 0.00 0.00 0.00 65 1015.0
20260502225503 43 253 7.0 14.0 0.00 0.00 0.00 65 1015.0
20260502225003 43 257 5.0 14.0 0.00 0.00 0.00 65 1014.9
20260502224504 43 251 5.0 13.0 0.00 0.00 0.00 66 1014.9
20260502224003 43 252 6.0 13.0 0.00 0.00 0.00 66 1014.9
20260502223503 43 250 6.0 13.0 0.00 0.00 0.00 65 1014.8
20260502223004 43 241 5.0 13.0 0.00 0.00 0.00 65 1014.8
20260502222503 43 244 6.0 14.0 0.00 0.00 0.00 66 1014.9
20260502222005 43 254 7.0 15.0 0.00 0.00 0.00 67 1014.9
20260502221503 43 257 7.0 15.0 0.00 0.00 0.00 67 1014.9
20260502221004 43 258 6.0 14.0 0.00 0.00 0.00 67 1014.9
20260502220503 43 253 6.0 14.0 0.00 0.00 0.00 67 1015.0
20260502220213 43 245 6.0 14.0 0.00 0.00 0.00 67 1015.0
20260502215503 43 249 7.0 14.0 0.00 0.00 0.00 67 1014.9
20260502215003 43 241 8.0 14.0 0.00 0.00 0.00 67 1014.9
20260502214503 43 247 7.0 14.0 0.00 0.00 0.00 67 1014.9
20260502214003 43 268 6.0 15.0 0.00 0.00 0.00 67 1014.8
20260502213716 43 263 7.0 15.0 0.00 0.00 0.00 67 1014.8
20260502213003 43 237 7.0 14.0 0.00 0.00 0.00 67 1014.8
20260502212714 43 251 7.0 14.0 0.00 0.00 0.00 67 1014.8
20260502212003 43 266 9.0 17.0 0.00 0.00 0.00 68 1014.8
20260502211503 43 267 8.0 17.0 0.00 0.00 0.00 68 1014.8
20260502211003 43 248 8.0 22.0 0.00 0.00 0.00 69 1014.8
20260502210503 43 241 10.0 22.0 0.00 0.00 0.00 69 1014.8
20260502210005 43 246 10.0 18.0 0.00 0.00 0.00 70 1014.7
20260502205505 42 248 10.0 18.0 0.00 0.00 0.00 70 1014.7
20260502205003 42 245 9.0 18.0 0.00 0.00 0.00 70 1014.8
20260502204503 42 245 8.0 18.0 0.00 0.00 0.00 71 1014.8
20260502204213 42 248 9.0 18.0 0.00 0.00 0.00 71 1014.8
20260502203505 42 266 10.0 23.0 0.00 0.00 0.00 70 1014.9
20260502203003 42 264 10.0 24.0 0.00 0.00 0.00 70 1014.9
20260502202503 42 257 9.0 24.0 0.00 0.00 0.00 71 1014.9
20260502202003 42 243 8.0 18.0 0.00 0.00 0.00 69 1014.9
20260502201503 42 238 10.0 18.0 0.00 0.00 0.00 69 1015.0
20260502201214 42 232 10.0 22.0 0.00 0.00 0.00 69 1015.1
20260502200503 42 232 9.0 22.0 0.00 0.00 0.00 68 1015.0
20260502200005 42 238 7.0 20.0 0.00 0.00 0.00 69 1015.1
20260502195503 42 240 8.0 20.0 0.00 0.00 0.00 69 1015.2
20260502195005 42 236 11.0 23.0 0.00 0.00 0.00 68 1015.1
20260502194503 42 242 10.0 23.0 0.00 0.00 0.00 69 1015.1
20260502194004 42 245 9.0 17.0 0.00 0.00 0.00 69 1015.2
20260502193503 41 246 9.0 20.0 0.00 0.00 0.00 69 1015.2
20260502193003 41 245 9.0 20.0 0.00 0.00 0.00 70 1015.2
20260502192505 41 228 8.0 17.0 0.00 0.00 0.00 69 1015.2
20260502192214 41 224 8.0 17.0 0.00 0.00 0.00 70 1015.3
20260502191503 41 225 9.0 19.0 0.00 0.00 0.00 70 1015.3
20260502191003 41 228 9.0 19.0 0.00 0.01 0.00 71 1015.3
20260502190713 41 231 9.0 19.0 0.00 0.01 0.00 70 1015.4
20260502190004 41 240 9.0 19.0 0.00 0.01 0.00 71 1015.3
20260502185503 42 241 9.0 18.0 0.00 0.01 0.00 71 1015.3
20260502185003 42 230 8.0 20.0 0.00 0.01 0.00 74 1015.4
20260502184503 42 226 6.0 20.0 0.00 0.01 0.00 74 1015.3
20260502184214 42 248 7.0 20.0 0.00 0.01 0.00 74 1015.2
20260502183503 42 247 10.0 23.0 0.00 0.02 0.00 70 1015.2
20260502183214 42 236 12.0 23.0 0.00 0.02 0.00 68 1015.3
20260502182503 42 233 11.0 28.0 0.00 0.02 0.00 66 1015.2
20260502182003 42 229 11.0 28.0 0.00 0.02 0.00 65 1015.2
20260502181503 43 223 11.0 27.0 0.00 0.02 0.00 64 1015.2
20260502181003 43 227 10.0 24.0 0.00 0.02 0.00 63 1015.2
20260502180505 44 243 10.0 24.0 0.00 0.02 0.00 62 1015.2
20260502170504 45 275 9.0 19.0 0.00 0.02 0.00 56 1015.0
20260502164003 46 269 9.0 20.0 0.00 0.03 0.00 57 1015.0
20260502163714 45 274 9.0 20.0 0.00 0.03 0.00 60 1015.1
20260502163005 45 298 8.0 19.0 0.00 0.03 0.00 58 1015.1
20260502162504 45 326 8.0 15.0 0.00 0.03 0.00 59 1015.1
20260502162213 44 325 8.0 17.0 0.00 0.03 0.00 60 1015.1
20260502161714 44 305 10.0 17.0 0.00 0.03 0.00 58 1015.1
20260502161003 45 293 9.0 20.0 0.00 0.03 0.00 58 1015.2
20260502160503 44 316 7.0 18.0 0.00 0.03 0.00 58 1015.2
20260502152003 45 275 8.0 17.0 0.00 0.05 0.00 56 1015.0
20260502151503 44 312 8.0 17.0 0.00 0.05 0.00 57 1015.0
20260502151214 44 320 8.0 18.0 0.00 0.05 0.00 54 1015.1
20260502150503 44 318 8.0 18.0 0.00 0.05 0.00 53 1015.0
20260502130713 41 290 7.0 19.0 0.00 0.05 0.00 70 1015.6
20260502123715 40 273 5.0 13.0 0.00 0.05 0.00 76 1015.8
20260502123005 39 283 5.0 12.0 0.00 0.05 0.00 77 1015.9
20260502122503 39 276 5.0 14.0 0.00 0.05 0.00 78 1015.9
20260502122005 39 265 5.0 14.0 0.00 0.05 0.00 79 1015.7
20260502121505 38 257 5.0 10.0 0.00 0.05 0.00 79 1015.7
20260502121003 38 257 5.0 10.0 0.00 0.05 0.00 80 1015.6
20260502120503 38 242 5.0 10.0 0.00 0.05 0.00 80 1015.6
20260502115714 38 230 5.0 12.0 0.00 0.05 0.00 82 1015.7
20260502115004 37 225 3.0 10.0 0.00 0.05 0.00 84 1015.8
20260502114714 37 219 3.0 8.0 0.00 0.05 0.00 86 1015.6
20260502114004 36 219 4.0 9.0 0.00 0.05 0.00 87 1015.7
20260502113503 35 219 4.0 8.0 0.00 0.05 0.00 88 1015.7
20260502113004 35 217 3.0 8.0 0.00 0.05 0.00 89 1015.7
20260502112714 35 215 2.0 8.0 0.00 0.05 0.00 89 1015.6
20260502112003 34 212 3.0 8.0 0.00 0.05 0.00 90 1015.7
20260502111505 34 207 4.0 8.0 0.00 0.05 0.00 91 1015.6
20260502111003 33 196 4.0 8.0 0.00 0.05 0.00 91 1015.6
20260502110505 33 186 4.0 9.0 0.00 0.05 0.00 91 1015.5
20260502110005 32 201 4.0 9.0 0.00 0.05 0.00 91 1015.5
20260502105503 32 258 3.0 8.0 0.00 0.05 0.00 91 1015.5
20260502105003 32 277 2.0 8.0 0.00 0.05 0.00 91 1015.4
20260502104503 32 284 1.0 4.0 0.00 0.05 0.00 91 1015.3
20260502104005 32 285 1.0 4.0 0.00 0.05 0.00 90 1015.4
20260502103714 32 285 0.0 3.0 0.00 0.05 0.00 90 1015.3
20260502103003 32 0 0.0 0.0 0.00 0.05 0.00 90 1015.2
20260502102503 32 0 0.0 0.0 0.00 0.05 0.00 90 1015.1
20260502102003 32 0 0.0 0.0 0.00 0.05 0.00 90 1015.0
20260502101504 32 0 0.0 0.0 0.00 0.05 0.00 89 1015.0
20260502101003 32 285 1.0 5.0 0.00 0.05 0.00 89 1015.1
20260502100714 32 285 1.0 5.0 0.00 0.05 0.00 89 1015.0
20260502100213 32 284 2.0 5.0 0.00 0.05 0.00 89 1014.9
20260502091503 33 283 3.0 8.0 0.00 0.05 0.00 88 1015.0
20260502091005 33 284 3.0 8.0 0.00 0.05 0.00 88 1014.9
20260502090713 33 285 3.0 8.0 0.00 0.05 0.00 88 1014.8
20260502071506 35 285 5.0 10.0 0.00 0.05 0.00 84 1014.4
20260502071005 35 285 6.0 12.0 0.00 0.05 0.00 84 1014.5
20260502070505 35 283 6.0 12.0 0.00 0.05 0.00 83 1014.6
20260502070006 35 276 7.0 14.0 0.00 0.05 0.00 83 1014.7
20260502065504 35 278 7.0 14.0 0.00 0.05 0.00 83 1014.7
20260502065005 35 282 6.0 14.0 0.00 0.05 0.00 83 1014.8
20260502064712 35 281 5.0 12.0 0.00 0.05 0.00 83 1014.8
20260502064003 35 284 4.0 9.0 0.00 0.05 0.00 82 1014.6
20260502063712 35 284 4.0 8.0 0.00 0.05 0.00 82 1014.7
20260502063213 36 284 3.0 8.0 0.00 0.05 0.00 82 1014.6
20260502062504 36 284 4.0 8.0 0.00 0.05 0.00 82 1014.5
20260502062003 36 284 4.0 8.0 0.00 0.05 0.00 81 1014.6
20260502061714 36 285 4.0 8.0 0.00 0.05 0.00 81 1014.6
20260502061003 36 285 4.0 8.0 0.00 0.05 0.00 81 1014.6
20260502060503 36 286 4.0 10.0 0.00 0.05 0.00 80 1014.5
20260502060003 36 291 4.0 10.0 0.00 0.05 0.00 80 1014.7
20260502055714 37 295 4.0 10.0 0.00 0.05 0.00 80 1014.6
20260502055003 37 300 4.0 9.0 0.00 0.05 0.00 80 1014.7
20260502054505 37 297 4.0 9.0 0.00 0.05 0.00 80 1014.7
20260502054003 37 292 3.0 6.0 0.00 0.05 0.00 79 1014.7
20260502053503 37 292 3.0 6.0 0.00 0.05 0.00 79 1014.7
20260502053003 38 293 4.0 13.0 0.00 0.05 0.00 78 1014.7
20260502052503 38 286 5.0 13.0 0.00 0.05 0.00 78 1014.7
20260502052003 38 285 5.0 13.0 0.00 0.05 0.00 78 1014.7
20260502051503 38 292 5.0 12.0 0.00 0.05 0.00 77 1014.7
20260502051003 38 292 5.0 12.0 0.00 0.05 0.00 77 1014.5
20260502050503 38 291 4.0 10.0 0.00 0.05 0.00 76 1014.5
20260502050005 39 295 4.0 10.0 0.00 0.05 0.00 76 1014.5
20260502045503 39 306 4.0 9.0 0.00 0.05 0.00 76 1014.5
20260502045003 39 312 4.0 9.0 0.00 0.05 0.00 75 1014.4
20260502044714 39 314 4.0 9.0 0.00 0.05 0.00 75 1014.3
20260502044005 40 325 5.0 13.0 0.00 0.05 0.00 75 1014.2
20260502043503 40 327 5.0 13.0 0.00 0.05 0.00 74 1014.1
20260502043003 40 321 6.0 15.0 0.00 0.05 0.00 74 1014.1
20260502042503 40 322 6.0 17.0 0.00 0.05 0.00 72 1014.0
20260502042003 40 312 5.0 17.0 0.00 0.05 0.00 74 1014.0
20260502041504 41 301 6.0 17.0 0.00 0.05 0.00 75 1013.9
20260502041005 41 307 7.0 18.0 0.00 0.05 0.00 75 1014.0
20260502040503 41 317 5.0 18.0 0.00 0.05 0.00 76 1014.0
20260502040003 41 300 4.0 12.0 0.00 0.05 0.00 79 1014.0
20260502035503 41 271 5.0 10.0 0.00 0.05 0.05 80 1014.0
20260502035003 42 270 5.0 9.0 0.00 0.05 0.05 81 1014.0
20260502034715 42 275 5.0 9.0 0.00 0.05 0.05 81 1014.0
20260502034003 42 268 6.0 13.0 0.00 0.05 0.05 81 1014.0
20260502033715 42 265 6.0 13.0 0.00 0.05 0.05 81 1013.9
20260502033005 42 270 6.0 13.0 0.00 0.05 0.05 81 1013.9
20260502032504 42 271 7.0 14.0 0.00 0.05 0.05 82 1013.9
20260502032003 42 270 6.0 14.0 0.00 0.05 0.05 82 1013.9
20260502031503 42 266 6.0 10.0 0.00 0.05 0.05 82 1013.9
20260502031004 42 255 6.0 13.0 0.00 0.05 0.05 82 1013.9
20260502030503 42 249 6.0 13.0 0.00 0.05 0.05 82 1013.9
20260502030003 42 244 5.0 13.0 0.00 0.05 0.05 82 1013.9
20260502025503 42 225 5.0 12.0 0.00 0.05 0.05 82 1013.9
20260502025004 42 219 6.0 12.0 0.00 0.05 0.05 82 1013.9
20260502024503 42 232 5.0 12.0 0.00 0.05 0.05 82 1014.0
20260502024003 42 238 5.0 10.0 0.00 0.05 0.05 82 1013.9
20260502023503 42 226 5.0 10.0 0.00 0.05 0.05 82 1014.0
20260502023004 42 220 4.0 10.0 0.00 0.05 0.05 82 1013.9
20260502022503 42 228 5.0 13.0 0.00 0.05 0.05 81 1014.0
20260502022003 42 226 6.0 13.0 0.00 0.05 0.05 81 1014.1
20260502021713 42 228 7.0 13.0 0.00 0.05 0.05 81 1013.9
20260502021003 42 233 5.0 13.0 0.00 0.05 0.05 81 1014.0
20260502020503 42 232 5.0 9.0 0.00 0.05 0.05 80 1013.9
20260502020003 42 230 5.0 14.0 0.00 0.05 0.05 80 1013.9
20260502015714 42 230 5.0 14.0 0.00 0.05 0.05 80 1013.9
20260502015003 42 234 6.0 14.0 0.00 0.05 0.05 81 1013.8
20260502014713 42 234 6.0 13.0 0.00 0.05 0.05 81 1013.8
20260502014003 42 222 5.0 10.0 0.00 0.05 0.05 82 1013.7